This demonstration page uses our WeatherBlox Daily Observations layout. Learn more.

Left ArrowRight Arrow

36.19886, -115.1175

Hourly Observations for April 2, 2021

Temp ( °F °C ) Dew Point ( °F °C ) Humidity (%) Winds ( mph kmh ) Pressure ( in mb ) Visibility ( mi km ) Precip ( " mm )
12:53 am 00:53 Clear 64 17.8 15 -9.4 15 15 N N/A 29.92 1013 10 16 N/A
1:53 am 01:53 Clear 60 15.6 16 -8.9 18 18 NW 12 19 29.91 1013 10 16 N/A
2:53 am 02:53 Clear 59 15 15 -9.4 18 18 NW 8 13 29.89 1012 10 16 N/A
3:53 am 03:53 Clear 60 15.6 13 -10.6 16 16 W 5 7 29.89 1012 10 16 N/A
4:53 am 04:53 Clear 57 13.9 13 -10.6 17 17 N N/A 29.91 1013 10 16 N/A
5:53 am 05:53 Clear 57 13.9 17 -8.3 21 21 WNW 6 9 29.92 1013 10 16 N/A
6:53 am 06:53 Sunny 59 15 17 -8.3 19 19 NW 3 6 29.95 1014 10 16 N/A
7:53 am 07:53 Sunny 64 17.8 13 -10.6 13 13 NW 6 9 29.97 1015 10 16 N/A
8:53 am 08:53 Sunny 68 20 18 -7.8 15 15 N N/A 29.98 1015 10 16 N/A
9:53 am 09:53 Sunny 72 22.2 19 -7.2 13 13 N N/A 29.98 1015 10 16 N/A
10:53 am 10:53 Sunny 76 24.4 13 -10.6 9 9 N N/A 29.98 1015 10 16 N/A
11:53 am 11:53 Sunny 81 27.2 8 -13.3 6 6 VRB 3 6 29.97 1015 10 16 N/A
12:53 pm 12:53 Sunny 83 28.3 10 -12.2 6 6 ENE 5 7 29.95 1014 10 16 N/A
1:53 pm 13:53 Sunny 84 28.9 17 -8.3 8 8 N N/A 29.92 1013 10 16 N/A
2:53 pm 14:53 Sunny 85 29.4 20 -6.7 9 9 SSE 7 11 29.90 1013 10 16 N/A
3:53 pm 15:53 Sunny 86 30 20 -6.7 9 9 ESE 6 9 29.89 1012 10 16 N/A
4:53 pm 16:53 Sunny 87 30.6 20 -6.7 8 8 W 3 6 29.88 1012 10 16 N/A
5:53 pm 17:53 Sunny 86 30 21 -6.1 9 9 ESE 3 6 29.87 1012 10 16 N/A
6:53 pm 18:53 Sunny 84 28.9 20 -6.7 9 9 ENE 6 9 29.88 1012 10 16 N/A
7:53 pm 19:53 Clear 83 28.3 21 -6.1 10 10 N N/A 29.88 1012 10 16 N/A
8:53 pm 20:53 Clear 77 25 25 -3.9 14 14 W 8 13 29.91 1013 10 16 N/A
9:53 pm 21:53 Clear 73 22.8 27 -2.8 18 18 NW 7 11 29.93 1014 10 16 N/A
10:53 pm 22:53 Clear 71 21.7 26 -3.3 19 19 NW 7 11 29.93 1014 10 16 N/A
11:53 pm 23:53 Clear 68 20 26 -3.3 21 21 WNW 5 7 29.93 1013 10 16 N/A

Powered by AerisWeather